Regional Weather Roundup
Issued by NWS Bismarck, ND

Home | Current Version | Previous Version | Text Only | Print | Product List | Glossary On
Versions: 1 2 3 4 5 6 7 8 9 10 11 12 13 14 15 16 17 18 19 20 21 22 23 24 25 26 27 28 29 30 31 32 33 34 35 36 37 38 39 40 41 42 43 44 45 46 47 48 49 50
000
ASUS43 KBIS 280010
RWRBIS

NWR BROADCAST TEXT
NATIONAL WEATHER SERVICE BISMARCK ND
600 PM CST MON FEB 27 2017

NOTE: "FAIR" INDICATES FEW OR NO CLOUDS BELOW 12,000 FEET WITH NO
SIGNIFICANT WEATHER AND/OR OBSTRUCTIONS TO VISIBILITY.


CITY           SKY/WX    TMP DP  RH WIND       PRES   REMARKS
WILLISTON      FAIR      16   8  71 SE8       29.82R WCI   5
MINOT          CLOUDY    13   7  77 N7        29.85R WCI   3
MINOT AFB      PTCLDY    10   4  77 NE6       29.85S WCI   0
BISMARCK       CLOUDY    21  15  78 NE15      29.82R WCI   8
DICKINSON      LGT SNOW  16  12  84 E14       29.72S FOG     WCI   2
GARRISON         N/A     13   8  81 NE6       29.83R WCI   4
HETTINGER ARPT CLOUDY    24  18  77 NE10      29.71R WCI  14
JAMESTOWN      CLOUDY    25  19  78 NE13      29.80R WCI  14
CARRINGTON     FLURRIES  19  18  93 N13       29.86R WCI   7
HAZEN          CLOUDY   N/A N/A N/A NE9       29.84S
MANDAN         CLOUDY    19  16  86 NE13      29.80S WCI   7
RUGBY          FLURRIES  14  10  85 E10       29.87R WCI   1
STANLEY        FAIR      10   7  85 E5        29.83R WCI   2
TIOGA          FAIR       9   7  92 SE7       29.82R WCI  -3
WATFORD CITY   FAIR      12   7  79 E9        29.80S WCI   0
$$

CITY           SKY/WX    TMP DP  RH WIND       PRES   REMARKS
GRAND FORKS    CLOUDY    21  12  68 N15       29.91R WCI   8
GRAND FORKS AF CLOUDY    20  16  83 NE14      29.90R WCI   7
DEVILS LAKE    LGT SNOW  16  12  86 NE7       29.88R FOG     WCI   6
FARGO          MOCLDY    30  23  75 N13       29.82R WCI  20
CAVALIER         N/A     14  10  85 N10       29.93S WCI   1
GRAFTON        FAIR      16  12  86 N9G16     29.94R WCI   4
GWINNER        FAIR      32  30  93 NE12      29.78R
ROLLA          CLOUDY    10   7  85 N7        29.86R WCI   0
$$

CITY           SKY/WX    TMP DP  RH WIND       PRES   REMARKS
ABERDEEN       CLOUDY    38  20  48 N9        29.73R
MOBRIDGE       FAIR      32  24  72 N14       29.68R
BUFFALO          N/A     31  19  61 E17       29.58R WCI  19
RAPID CITY     CLOUDY    37  17  44 N8        29.61R
GLASGOW        FAIR      17  10  74 E12       29.74S WCI   4
SIDNEY         FLURRIES  17  11  77 NE9       29.80S WCI   6
WOLF POINT     FAIR      17   8  67 E8        29.80R WCI   7
GLENDIVE       FLURRIES  17  13  84 NE12      29.75R WCI   4
MILES CITY     MOCLDY    26  16  65 N5        29.70R
BAKER          CLOUDY    23  18  81 E14       29.68R WCI  11
$$

CITY           SKY/WX    TMP DP  RH WIND       PRES   REMARKS
BILLINGS       MOCLDY    27  17  66 NE7       29.61R WCI  19
GREAT FALLS    FAIR      21  13  71 E7        29.55R WCI  12
REGINA         MOCLDY     9   0  66 SE10      29.81R WCI  -6
ESTEVAN        PTCLDY     7   0  72 E7        29.84R WCI  -5
$$




USA.gov is the U.S. government's official web portal to all federal, state and local government web resources and services.